GEFSNGP_500_meanwind_078.txt.gz
Wind_Speed
17 18 19 20 20 20 21 22 21 19 18 17 19 20 18 17 17 18 17 17 17 16 15 14 12 10 9 8 7 6 6 7 7 8 9 9 10 11 12 12 12 12 12 11
18 19 21 20 20 21 22 22 22 21 18 19 21 20 19 18 18 18 18 18 18 17 16 15 13 12 11 9 8 7 7 7 7 8 9 10 11 11 12 12 13 13 12 12
19 21 21 20 19 22 22 22 22 20 19 21 21 20 19 18 18 18 19 19 19 18 17 16 15 14 12 11 10 8 8 7 8 8 9 10 10 11 12 12 13 13 13 13
21 21 22 19 20 21 22 21 22 22 21 22 22 21 19 18 18 19 19 19 19 19 19 18 16 15 14 13 11 10 9 9 8 9 9 10 10 11 12 13 13 14 14 14
24 25 23 21 22 22 21 22 23 23 23 23 22 20 20 20 20 20 20 19 20 19 19 19 18 17 16 15 13 12 11 10 9 9 10 10 11 12 12 13 14 14 14 15
28 28 27 24 24 23 23 24 24 25 25 24 23 22 22 23 22 22 21 21 21 21 20 20 19 18 18 16 15 14 13 12 11 11 11 11 12 12 13 14 14 15 15 15
30 31 30 29 28 26 26 26 26 26 26 26 25 25 24 25 24 23 23 23 22 22 22 22 21 20 19 18 17 16 15 14 14 13 12 12 13 13 14 14 15 15 15 16
33 33 33 32 31 31 30 29 28 28 28 28 28 27 26 26 26 26 25 25 24 24 23 23 23 22 21 20 19 18 17 16 16 15 15 14 14 14 15 15 15 16 16 17
35 36 36 35 35 34 33 32 31 31 31 31 30 30 29 29 29 28 27 27 27 26 25 25 25 24 23 22 21 20 19 19 18 17 17 16 16 16 16 16 17 17 18 18
38 37 38 39 39 39 38 36 35 35 34 34 33 33 32 32 32 31 30 29 29 28 28 27 27 27 26 25 24 23 22 21 20 20 19 19 18 18 18 18 19 19 20 21
41 40 41 42 43 43 42 41 40 39 38 38 36 36 35 35 35 34 33 32 31 31 30 30 30 29 28 27 26 26 25 24 23 22 22 21 21 21 21 21 21 21 22 23
43 43 44 44 45 46 46 45 44 43 42 42 41 39 38 38 37 37 36 35 34 33 33 32 32 31 30 30 29 28 27 26 26 25 24 24 23 23 23 23 23 24 24 25
47 46 46 46 47 49 49 49 48 48 47 46 45 44 42 41 40 39 38 37 36 35 35 35 34 33 33 32 31 30 30 29 28 27 27 26 26 25 25 25 26 26 27 27
49 50 49 49 49 50 51 51 51 51 51 50 49 48 47 45 44 42 41 40 39 38 38 38 37 36 35 34 33 32 32 31 30 30 29 29 28 28 28 28 28 28 29 30
52 52 52 51 51 51 52 52 53 53 53 53 53 53 51 50 48 47 45 44 42 41 40 40 39 38 37 36 35 34 33 33 32 32 31 31 31 31 30 30 30 31 31 32
54 54 54 53 53 52 52 52 53 53 54 55 56 56 55 54 52 50 49 47 45 43 42 41 41 40 39 38 37 36 35 34 34 33 33 33 33 33 33 33 33 33 33 34
54 54 54 53 53 52 51 52 52 53 54 54 56 57 58 57 56 54 52 51 49 47 45 44 43 42 41 40 39 38 37 36 35 35 35 35 35 35 35 35 35 35 36 36
54 53 53 52 52 51 50 50 51 51 53 54 55 56 57 59 58 57 55 54 53 51 49 47 45 44 43 42 41 40 39 38 37 37 37 36 36 37 37 37 37 37 38 38
51 51 50 49 50 50 49 48 49 50 50 52 53 54 56 58 58 58 58 56 55 53 50 49 47 46 45 44 43 42 41 40 40 39 39 39 39 39 39 39 39 39 40 40
49 48 48 47 47 47 47 46 47 47 48 49 50 52 53 55 57 58 58 57 56 55 53 52 50 49 47 46 45 44 43 42 42 41 41 41 41 40 40 41 41 41 42 42
46 46 46 45 44 44 44 44 44 44 45 46 47 48 50 53 55 57 58 58 57 58 57 55 53 51 50 48 46 46 45 44 44 43 43 43 43 42 42 43 43 43 44 44
43 43 43 42 41 40 40 41 42 42 42 43 43 44 47 49 52 55 57 57 57 58 58 57 55 53 51 49 48 48 47 46 46 45 45 45 44 44 44 44 45 45 45 45
42 41 40 40 40 39 38 38 38 39 39 39 40 41 42 44 47 50 54 55 56 57 58 57 56 54 53 52 51 50 49 48 48 47 47 46 46 46 46 46 46 46 46 46
40 39 39 38 38 38 37 36 37 37 38 37 38 39 40 41 42 45 49 53 55 55 56 57 56 55 54 53 52 51 50 50 49 49 48 48 47 47 47 47 47 47 47 46
39 38 38 37 36 36 36 35 35 35 35 35 35 37 37 38 39 41 44 48 51 54 55 56 57 56 55 54 53 52 52 51 50 50 49 49 48 48 48 48 47 47 47 46
37 36 35 36 35 34 34 33 33 33 33 33 32 33 34 35 36 38 40 44 48 50 52 54 55 55 55 53 53 52 51 50 50 50 49 48 48 48 48 47 47 47 46 45
35 34 34 33 33 33 33 32 31 31 31 31 30 30 32 32 33 35 37 41 45 47 49 51 52 53 53 53 53 52 51 51 50 50 49 49 48 47 46 46 46 46 45 44

GEFSNGP_500_meanwind_084.txt.gz
Wind_Speed
12 14 17 19 19 21 21 21 21 20 21 22 24 25 24 23 22 21 20 19 18 18 18 17 17 17 15 15 14 13 12 11 10 10 10 10 11 11 11 12 12 12 12 11
13 15 17 18 18 19 21 22 22 22 22 23 25 24 24 23 22 22 21 20 19 19 19 19 18 18 17 16 15 14 13 13 12 11 10 10 10 11 11 11 12 12 12 12
15 16 18 18 17 19 21 22 23 24 24 24 24 24 24 23 22 22 21 21 21 20 20 20 20 20 19 18 17 16 15 14 13 12 11 11 11 10 11 11 12 12 12 12
19 19 19 17 20 22 23 24 25 25 25 24 23 23 24 24 23 21 21 21 21 21 21 21 21 21 21 20 19 19 17 16 15 14 13 12 12 11 11 11 12 12 12 12
23 23 23 21 23 23 24 26 27 27 26 25 23 24 26 25 24 23 23 22 22 22 22 23 23 23 23 22 21 20 19 18 17 16 15 14 13 13 12 12 12 12 12 12
25 26 27 26 28 26 27 31 32 30 28 28 26 26 28 26 25 25 25 25 24 24 24 24 25 25 25 24 24 23 22 21 20 19 18 16 15 14 14 13 12 12 12 12
28 28 29 33 32 31 32 35 35 33 32 31 30 29 29 29 28 27 28 27 27 27 27 27 27 27 27 26 26 25 24 23 22 21 20 19 18 17 16 15 14 14 13 13
32 32 34 37 36 35 36 38 38 37 36 35 34 33 32 31 31 30 30 30 29 29 29 29 29 29 29 28 28 28 27 26 25 24 23 22 21 20 19 18 17 16 16 15
34 35 38 40 40 40 40 41 41 40 39 39 38 37 36 35 34 34 33 33 32 32 32 31 31 31 31 31 31 30 29 29 28 27 26 25 24 23 22 21 20 19 18 17
39 36 38 42 44 45 44 44 44 43 42 42 41 40 39 38 37 37 36 36 35 35 34 34 34 34 34 33 33 32 32 31 31 30 29 28 27 25 24 24 23 22 21 20
43 42 42 44 47 48 48 46 46 45 45 45 45 44 43 42 41 40 39 39 38 38 37 36 36 36 36 36 35 35 34 34 33 33 32 31 30 28 27 26 26 25 24 23
46 46 48 48 49 50 51 50 49 48 48 48 48 47 47 46 45 44 43 43 42 41 40 39 39 39 38 38 38 37 37 36 35 35 34 33 32 31 30 29 28 28 27 26
50 50 51 51 51 52 53 53 53 52 51 51 51 51 50 49 48 48 47 47 46 45 44 43 42 41 40 40 40 40 39 38 38 37 36 36 35 34 33 32 31 30 30 29
53 53 53 53 54 54 55 55 55 55 54 54 54 54 53 53 52 51 50 50 50 49 48 47 46 44 42 42 42 41 41 41 40 39 38 38 37 36 35 34 33 32 32 31
55 55 56 56 57 56 57 57 57 56 56 56 56 56 55 55 54 53 53 53 53 53 52 51 50 48 46 45 44 43 43 42 42 41 40 39 38 38 37 36 35 34 33 33
57 57 57 58 58 58 59 59 58 58 58 58 58 58 57 56 56 55 54 54 54 55 55 55 53 52 50 49 47 46 45 44 43 43 42 41 40 39 38 37 36 35 35 34
57 57 58 58 59 59 59 59 59 58 58 58 58 58 58 57 56 55 55 55 55 55 55 56 56 55 54 52 51 49 48 46 45 44 43 43 42 41 40 39 38 37 36 35
58 58 59 59 59 59 59 59 58 58 57 57 57 56 56 56 56 55 55 55 55 55 56 57 57 57 56 55 54 53 51 49 48 46 45 44 43 42 41 40 39 38 37 37
58 58 59 59 59 60 59 59 58 57 55 55 54 54 54 54 54 54 54 54 54 54 55 56 57 57 57 57 57 55 54 52 50 48 47 46 45 43 42 41 40 39 38 38
58 58 59 59 59 59 58 56 55 54 53 53 53 53 52 52 52 52 52 52 52 53 53 55 56 56 57 57 57 57 56 55 53 50 49 47 46 44 43 42 41 40 39 38
58 59 59 58 57 57 55 54 54 53 52 51 51 50 49 48 48 49 49 49 48 50 51 52 54 55 55 57 57 57 56 56 55 52 50 49 47 46 44 43 42 42 41 40
57 57 57 56 56 55 54 54 53 52 51 49 49 48 47 46 45 45 46 46 46 47 48 49 50 52 53 55 56 56 56 55 55 53 52 50 49 47 46 44 43 42 42 41
55 55 55 54 54 53 52 51 51 50 48 47 46 45 45 44 42 42 42 42 44 44 46 47 48 49 51 52 53 55 55 55 54 53 52 51 50 48 47 46 45 44 43 43
53 53 52 52 51 50 48 47 47 46 44 43 42 42 43 42 40 40 40 40 41 42 43 44 45 47 49 50 51 52 54 54 53 52 51 51 50 49 48 47 46 45 44 44
51 51 50 49 48 47 46 44 43 41 40 40 39 39 40 40 39 38 39 39 39 40 42 42 43 45 47 49 50 51 53 54 53 51 50 51 50 49 48 46 45 44 44 44
48 47 46 44 43 43 42 41 39 38 38 37 37 37 37 37 37 37 37 37 36 36 38 40 41 43 45 47 49 50 51 52 52 52 51 51 50 49 48 47 46 44 44 43
44 43 42 41 40 39 39 38 38 37 37 36 35 34 34 34 34 34 34 34 34 34 34 35 36 39 41 43 45 47 48 50 51 51 51 50 50 50 49 47 46 45 45 44

GEFSNGP_500_meanwind_090.txt.gz
Wind_Speed
7 7 8 8 9 10 11 11 12 12 13 14 15 16 16 17 17 17 17 17 17 17 17 17 17 17 17 17 17 16 16 15 14 13 11 10 9 8 7 7 7 7 7 7
8 9 9 10 11 12 12 12 13 13 14 15 16 17 17 18 18 18 18 18 18 19 18 18 18 19 19 18 18 18 18 17 17 15 14 12 11 10 9 8 7 6 6 6
9 11 11 12 13 14 15 15 15 15 15 16 17 17 18 18 19 19 19 19 19 20 20 20 20 20 20 20 20 20 20 20 19 18 17 15 14 12 11 10 9 8 7 7
12 13 13 15 16 17 17 17 16 16 17 18 19 20 20 20 21 21 21 20 20 21 22 22 22 22 22 22 22 22 22 22 22 21 20 18 16 15 14 13 11 10 9 8
15 16 16 17 18 20 20 19 18 18 19 20 21 22 22 23 24 23 23 23 23 23 24 24 24 24 24 24 23 23 24 24 24 24 23 21 20 18 17 16 14 13 11 10
20 21 20 20 21 22 24 23 21 21 22 23 24 25 26 26 26 27 27 26 26 26 27 27 27 26 26 26 26 25 26 26 26 26 25 24 23 22 20 19 17 16 14 13
24 25 25 25 24 25 27 26 26 26 26 27 27 28 29 29 29 29 29 29 29 29 29 30 30 30 29 28 28 28 29 28 28 28 28 27 26 25 24 22 21 19 18 16
27 28 28 29 29 29 29 30 29 29 30 31 31 32 33 33 33 33 33 33 32 32 32 32 33 33 32 32 31 31 31 31 30 30 30 30 29 28 27 26 24 23 21 20
30 31 32 32 33 33 33 34 34 34 34 35 36 36 37 37 37 37 37 37 37 36 35 36 36 36 36 35 35 35 34 33 33 33 33 32 32 31 30 29 28 26 25 23
34 35 36 36 37 37 38 38 39 39 39 40 41 41 41 41 41 41 41 41 41 41 40 39 39 40 40 39 39 38 37 36 36 35 35 35 34 34 33 32 30 29 28 27
37 38 39 40 40 41 42 43 44 44 45 45 46 47 47 46 45 45 45 45 45 45 44 43 43 43 43 43 42 41 40 39 39 38 37 37 37 36 35 34 33 32 31 30
39 40 42 42 43 45 46 47 48 49 50 50 51 51 51 51 51 50 49 48 48 47 47 47 47 46 46 47 46 45 44 43 42 41 40 40 39 39 38 37 36 35 34 32
44 44 45 46 46 47 49 50 51 51 52 52 53 53 54 54 54 54 53 52 51 50 50 50 50 50 50 50 50 50 48 47 46 45 44 43 42 41 40 39 38 37 36 35
48 48 48 48 49 51 52 52 53 54 54 54 55 56 56 57 57 56 55 55 54 53 53 53 53 53 54 54 53 53 52 52 50 48 47 46 45 44 43 42 41 40 39 38
50 51 51 52 53 53 54 55 55 55 55 56 57 58 59 59 58 58 58 57 57 56 55 54 54 55 55 56 55 55 55 54 54 52 50 49 48 47 45 44 43 42 41 40
52 52 52 53 54 55 55 55 56 56 57 58 58 59 60 60 59 58 58 58 57 56 55 54 54 54 55 56 56 56 56 56 56 55 53 52 51 49 48 47 45 44 43 41
53 52 53 54 55 55 56 56 57 57 58 59 59 60 60 60 59 59 58 58 57 55 54 54 53 54 55 55 55 55 56 56 57 58 56 54 53 51 50 49 47 46 45 43
53 53 54 55 55 56 57 57 58 58 59 60 60 60 60 60 59 58 58 57 56 54 53 54 53 53 53 53 54 54 55 55 57 58 58 56 55 53 52 51 50 48 46 46
53 54 55 56 56 57 58 58 59 59 60 60 60 60 60 60 59 58 58 57 56 54 52 52 52 52 51 51 52 52 54 54 56 57 57 58 57 55 54 52 51 50 48 47
55 55 56 56 57 58 58 59 60 60 60 61 61 60 59 58 58 58 58 56 54 53 52 50 49 49 49 49 50 51 52 53 55 56 57 58 58 57 56 55 53 52 50 49
54 55 55 56 57 58 59 59 60 60 61 61 60 60 59 58 58 57 56 53 51 50 49 48 47 46 46 47 47 48 50 51 52 54 55 56 57 57 57 57 55 53 51 50
55 55 56 56 57 57 58 59 59 60 60 60 59 59 58 56 55 54 52 50 48 47 46 45 43 44 44 44 45 46 47 49 50 52 53 54 55 56 56 56 56 55 53 51
54 54 55 55 55 56 57 57 58 58 58 57 56 55 54 53 51 50 48 46 45 43 43 41 41 41 42 42 42 43 45 46 47 49 50 51 53 55 54 54 55 55 54 52
52 53 53 54 54 55 55 55 55 55 54 53 52 51 50 49 48 46 45 43 41 41 40 39 39 40 40 40 40 41 41 43 44 46 48 49 50 52 53 54 53 53 53 52
52 52 52 53 53 53 53 53 53 52 51 50 48 47 47 47 46 44 42 41 40 39 39 39 39 39 39 39 39 39 40 40 42 43 46 47 48 49 51 52 52 50 50 50
51 51 51 51 51 51 51 51 50 48 47 46 45 45 44 44 43 42 40 39 38 38 38 38 37 37 36 36 36 37 37 38 40 41 42 44 45 47 48 49 50 49 48 48
49 49 49 49 49 49 48 47 47 46 45 45 43 42 41 41 40 40 39 38 37 37 37 36 35 33 33 33 34 35 35 35 38 39 40 42 43 45 46 47 48 48 47 46

GEFSNGP_500_meanwind_096.txt.gz
Wind_Speed
3 2 2 2 2 3 4 4 5 6 7 8 9 10 11 12 14 15 16 16 17 17 18 18 18 18 19 19 19 19 19 19 19 18 18 18 17 17 16 15 14 13 12 11
2 2 2 2 3 4 5 5 6 7 7 9 10 11 12 13 15 16 17 17 18 19 19 20 20 20 20 20 21 21 21 21 21 20 20 20 20 19 18 17 16 15 14 13
2 3 3 3 5 5 6 7 8 8 9 10 11 12 14 15 16 17 17 18 19 20 21 21 22 22 22 22 22 23 23 23 23 22 22 22 22 21 21 20 19 17 16 15
5 6 5 6 6 7 8 9 9 10 11 13 14 15 16 17 18 19 20 20 21 22 23 23 24 24 24 24 25 25 25 25 25 24 24 24 24 24 23 23 22 21 19 18
7 8 7 8 9 10 10 11 12 13 14 16 17 19 20 21 22 22 23 24 24 25 25 26 26 27 27 27 28 28 28 27 27 27 26 26 26 26 26 25 25 24 22 21
11 11 10 11 12 12 13 13 16 16 18 19 20 21 22 24 25 26 27 27 28 28 29 29 30 30 30 30 30 31 31 31 30 30 29 29 29 29 29 28 27 27 25 24
14 14 14 15 15 16 16 17 18 20 21 22 24 25 26 27 28 29 31 32 33 33 33 34 34 34 34 34 34 34 34 34 34 33 33 32 32 32 31 31 30 29 29 28
18 18 17 19 19 20 20 21 22 23 24 26 27 29 30 31 32 33 34 36 37 38 38 38 38 38 38 38 38 37 37 37 37 36 36 36 35 35 34 34 33 32 32 31
21 21 22 22 23 23 24 25 26 27 28 30 31 32 34 35 36 38 39 40 41 42 42 42 43 43 42 42 42 41 41 40 40 40 40 39 39 38 38 37 36 35 35 34
25 25 26 26 27 27 28 29 30 31 33 34 35 37 38 39 41 43 44 45 46 46 47 47 47 48 47 46 45 45 46 45 44 44 44 43 43 43 42 41 40 39 38 37
28 29 29 29 30 31 32 33 34 35 37 38 39 41 42 44 46 47 48 49 50 50 51 51 51 52 52 52 51 50 49 49 49 48 47 47 47 46 46 45 44 43 42 41
32 32 33 32 34 35 36 37 38 40 41 42 44 45 47 48 50 51 52 53 54 54 55 55 55 55 56 56 55 54 53 52 52 51 51 50 50 50 50 49 48 47 46 45
36 36 36 37 37 39 40 41 43 44 46 47 48 49 51 52 53 54 55 56 57 57 58 58 58 58 59 58 58 57 56 55 54 54 54 53 53 53 52 52 52 51 50 48
39 39 40 40 42 43 44 46 47 48 49 50 51 53 54 55 57 58 58 59 60 60 60 60 60 60 60 60 59 59 58 58 57 56 56 56 56 56 55 55 55 54 53 52
41 42 43 44 45 46 48 49 50 51 52 53 54 55 56 58 59 60 61 61 62 62 62 63 63 63 62 61 60 60 59 58 57 57 57 57 57 57 57 57 57 57 56 55
44 45 46 47 48 50 51 52 53 53 54 55 57 58 59 60 61 62 63 64 64 64 64 64 65 64 63 61 60 59 58 56 55 55 55 56 56 56 57 57 57 57 57 56
48 48 49 51 52 53 54 55 55 56 57 58 59 60 61 62 63 64 65 65 66 66 65 66 65 63 62 61 60 59 57 56 55 54 54 54 54 55 55 56 56 57 57 57
51 52 53 54 55 55 56 57 57 58 59 60 61 62 63 64 65 66 66 66 66 66 66 66 65 63 61 61 60 59 57 56 54 53 53 53 52 53 54 55 56 56 57 58
54 55 56 56 57 57 58 58 59 60 61 62 63 64 65 65 66 66 67 67 67 66 65 65 64 62 61 60 59 58 56 55 53 53 52 52 51 51 52 53 54 55 57 58
56 57 57 58 58 59 59 60 61 62 63 63 64 64 65 65 66 67 67 67 66 66 65 63 62 61 60 59 58 56 55 53 52 51 50 51 50 49 50 51 53 55 56 58
59 59 59 59 60 60 61 62 62 63 63 64 64 64 65 65 66 67 66 65 65 65 64 62 60 59 58 56 55 53 52 51 49 48 48 48 48 48 48 49 50 53 55 56
61 60 61 61 61 61 62 62 62 63 63 63 64 64 65 65 66 66 65 64 63 62 61 59 57 56 54 53 51 50 49 48 46 45 45 45 46 45 46 47 48 50 52 54
62 63 63 62 62 62 62 62 62 62 62 63 63 64 64 64 65 64 62 61 61 59 58 56 54 52 51 50 49 48 46 44 42 41 41 42 43 42 42 44 46 47 49 51
64 64 64 63 63 62 62 61 61 61 61 61 62 62 63 63 62 61 60 58 58 57 55 53 52 51 49 48 47 45 43 41 40 40 40 40 40 40 40 40 43 45 47 48
65 65 64 63 62 61 60 59 59 58 58 59 60 61 61 61 60 58 56 55 55 54 53 52 51 49 48 46 45 43 41 40 39 39 39 38 38 38 38 38 39 42 44 46
64 64 62 60 59 58 57 56 56 56 57 57 58 59 59 58 56 54 53 52 52 52 51 49 48 46 45 44 42 41 40 40 38 37 36 36 36 36 36 35 37 40 42 44
61 59 57 57 56 56 55 55 56 56 56 57 57 57 56 54 52 51 51 50 50 49 48 47 45 44 42 41 41 40 39 38 37 35 34 34 34 34 34 33 34 37 40 42

GEFSNGP_500_meanwind_102.txt.gz
Wind_Speed
10 9 9 9 9 9 8 8 7 6 6 5 5 5 5 6 6 7 8 9 10 11 11 12 13 14 15 16 17 18 18 19 19 19 19 19 20 20 20 20 20 19 18 18
9 9 9 8 8 8 8 7 7 6 6 5 5 5 6 7 8 9 10 11 12 12 13 14 15 16 17 18 19 20 20 21 21 21 22 22 21 22 22 22 21 21 20 20
8 8 8 8 8 8 8 8 7 7 7 7 7 7 8 9 9 10 12 13 14 15 16 17 18 19 20 20 21 22 23 23 24 24 24 25 24 24 24 24 24 24 23 23
9 9 9 8 9 8 8 8 9 9 8 8 9 9 10 11 12 13 14 14 16 17 18 19 20 21 22 23 24 25 26 26 27 27 27 28 28 28 27 27 26 26 26 26
10 10 9 10 10 10 10 10 10 10 10 11 11 11 12 13 14 15 16 17 18 19 20 22 23 24 25 26 27 28 29 29 30 30 31 31 31 31 30 30 30 29 29 29
12 12 12 12 12 12 12 12 12 12 13 13 13 14 15 16 17 18 19 20 21 22 23 24 26 27 28 30 31 32 32 33 33 34 34 34 34 34 34 33 33 33 32 32
14 14 14 14 14 14 15 14 15 15 15 15 16 17 18 19 20 21 22 23 24 25 27 28 30 31 32 33 34 35 36 37 37 38 38 38 38 38 38 37 37 36 36 36
17 17 17 18 17 17 18 18 18 18 18 19 20 20 21 22 24 25 26 27 28 30 31 32 34 35 36 37 38 39 40 41 41 42 42 43 43 42 42 41 41 40 40 39
21 21 21 21 21 21 21 21 21 21 22 23 23 24 25 26 27 28 30 31 32 34 35 36 37 38 40 41 42 43 44 45 46 46 47 47 47 47 47 46 45 45 44 43
24 24 24 24 24 24 24 24 24 25 25 26 27 28 29 29 31 32 33 34 36 37 38 40 41 42 44 45 46 47 48 49 49 50 50 50 50 50 50 49 49 48 48 48
29 28 28 28 28 28 28 28 28 28 29 30 30 31 32 33 34 35 36 38 39 40 42 43 44 46 47 49 50 51 52 53 53 52 52 53 53 53 52 51 51 51 51 51
33 32 32 32 32 32 32 31 31 32 32 33 33 34 34 35 36 38 39 40 41 43 44 46 47 49 50 52 53 54 54 54 55 55 55 55 55 54 53 54 53 54 53 53
36 36 35 35 35 35 35 35 34 34 35 35 35 36 37 38 39 40 42 43 44 46 47 49 50 51 53 54 55 56 57 57 57 57 57 58 57 56 54 54 54 54 54 54
38 38 37 37 37 37 37 37 37 37 37 37 38 39 40 41 42 43 44 46 47 48 49 51 53 54 55 57 58 59 59 59 59 59 59 59 59 57 55 54 53 52 53 53
40 40 40 39 39 39 39 39 39 39 39 40 40 41 42 44 45 46 47 48 49 51 52 54 56 57 59 60 61 62 61 61 61 61 61 61 60 58 56 54 53 52 51 52
42 41 41 41 41 41 41 41 41 41 42 42 43 44 45 46 47 48 49 51 53 54 56 57 59 60 62 63 64 64 63 63 63 63 62 61 59 58 56 54 53 52 51 51
44 43 43 43 43 43 43 43 43 43 44 45 46 47 48 49 50 51 52 54 56 57 59 60 61 63 64 66 66 65 65 64 63 63 62 60 59 57 56 54 52 51 51 50
45 45 45 45 44 44 45 45 45 46 47 48 49 50 51 52 53 54 56 57 59 60 61 62 64 65 66 67 67 66 65 64 64 63 62 60 58 57 55 53 52 51 51 50
46 46 46 46 46 46 47 47 48 50 50 51 52 53 54 55 56 57 58 60 61 62 63 64 66 66 66 67 67 66 65 65 64 63 62 60 58 56 54 53 51 50 49 49
49 49 49 49 49 49 50 50 51 52 52 53 54 55 56 57 58 59 60 61 62 63 64 66 66 66 66 67 67 66 65 64 64 62 60 58 56 54 51 50 48 47 47 47
50 50 50 51 51 52 53 53 53 54 54 55 56 57 58 58 60 61 62 62 63 64 65 66 66 66 66 66 66 65 64 63 62 60 57 55 52 50 48 47 46 45 44 45
52 52 52 53 54 54 54 54 55 55 56 56 57 58 59 60 61 62 63 63 64 64 65 65 65 65 65 65 64 63 62 60 58 56 53 51 50 48 46 45 44 43 43 43
54 55 55 55 56 56 56 56 57 58 58 59 59 60 61 62 63 64 63 63 63 63 63 63 63 63 63 63 62 60 58 56 54 52 51 49 48 46 45 44 43 43 42 42
57 57 58 58 58 58 58 59 59 59 60 61 62 62 63 64 63 63 62 62 61 61 61 61 60 61 61 61 59 57 55 53 52 50 49 48 46 45 44 43 42 41 40 39
61 61 60 60 60 60 60 61 61 61 62 63 63 63 63 63 62 61 60 60 59 59 59 59 59 60 59 58 56 54 52 51 50 48 47 46 44 44 43 42 40 38 37 36
62 62 62 62 62 62 62 62 62 63 63 63 62 61 61 61 59 58 58 58 57 57 57 58 57 57 56 54 53 51 49 48 47 46 45 44 44 43 41 39 37 35 33 33
62 62 62 62 62 62 62 62 62 62 62 60 59 59 58 58 57 56 56 55 54 54 55 55 54 53 52 51 49 48 47 46 45 44 43 43 42 40 38 36 34 32 31 31

GEFSNGP_500_meanwind_108.txt.gz
Wind_Speed
11 12 11 12 13 13 14 13 13 14 13 11 10 9 8 7 7 6 6 6 6 6 7 7 9 10 11 12 13 14 15 16 17 18 19 20 21 22 22 22 23 23 23 23
12 12 12 12 13 13 14 15 14 14 12 10 9 9 8 8 8 7 7 7 8 8 8 9 10 11 12 13 15 16 17 18 19 20 21 22 23 23 24 24 24 25 25 25
12 12 12 12 13 13 14 14 14 14 12 11 10 10 10 9 9 9 9 9 10 10 11 11 12 13 14 15 16 18 19 20 21 21 22 23 24 25 26 26 27 27 27 27
13 13 12 12 13 13 13 13 14 14 12 12 12 12 12 11 11 11 11 11 12 12 13 14 15 16 17 18 19 20 21 22 23 23 24 25 27 28 29 29 30 30 30 30
14 14 13 13 12 13 14 13 14 13 13 13 13 13 13 13 13 13 13 14 14 15 16 17 18 19 20 21 22 23 24 24 25 26 27 29 30 31 32 32 32 33 34 34
16 15 15 14 13 14 15 14 14 14 14 14 15 15 14 15 15 15 16 16 17 18 19 20 21 22 23 24 24 25 26 27 28 29 30 32 33 34 34 35 35 36 37 38
18 18 19 16 15 17 17 15 15 16 17 17 17 16 16 17 17 18 19 20 20 21 22 23 24 25 26 26 27 28 29 30 31 32 33 34 36 37 38 38 39 40 40 41
21 21 21 18 19 19 19 18 18 19 19 19 19 19 20 21 21 21 22 23 24 25 26 26 27 28 29 29 30 31 32 33 34 35 36 38 40 40 41 42 43 43 43 43
24 24 23 22 22 22 22 22 22 22 22 22 22 23 23 24 24 25 26 27 28 29 29 29 30 31 32 33 34 34 35 36 37 38 40 41 43 44 45 45 45 44 44 44
27 27 26 26 26 26 26 26 25 26 26 26 26 27 27 28 28 29 30 31 31 32 33 33 33 34 35 36 37 38 38 39 40 41 42 44 45 46 47 47 46 47 47 46
30 30 30 30 30 29 29 30 29 29 30 30 30 30 31 31 32 32 33 34 35 36 36 37 37 37 38 39 39 40 41 42 43 44 45 46 47 48 49 49 49 50 50 50
34 35 35 34 33 33 33 33 33 33 33 34 34 34 34 35 36 36 37 38 38 39 39 40 40 41 41 41 42 43 44 45 46 47 48 49 50 51 52 52 53 53 54 54
39 38 38 38 37 37 37 37 37 37 37 37 38 38 38 39 39 40 40 40 41 42 42 43 43 43 44 44 45 46 47 48 49 50 51 52 54 55 55 55 56 57 58 58
42 42 42 41 41 40 40 41 41 40 40 40 41 41 41 41 42 42 42 42 43 44 44 44 45 45 46 46 47 48 50 51 52 53 54 56 57 59 59 59 59 59 61 61
44 44 44 44 43 43 43 43 42 42 42 42 43 43 43 43 43 44 44 44 44 45 45 46 47 47 48 49 50 51 52 53 55 56 58 59 61 62 62 62 62 62 63 62
46 46 46 45 45 45 45 45 44 45 45 45 45 45 45 45 46 46 46 46 47 47 48 49 49 49 50 52 53 54 55 57 58 60 61 63 64 65 65 65 65 64 64 63
47 46 47 47 47 47 47 47 47 47 47 47 47 47 47 48 48 48 49 49 49 50 50 51 52 52 54 55 56 57 58 60 61 63 64 65 66 67 67 66 66 65 64 63
46 46 47 48 49 49 49 49 49 49 49 49 49 49 49 49 50 50 51 51 51 51 52 54 54 56 57 58 59 60 61 62 64 65 66 67 68 68 68 67 66 66 64 63
47 47 47 48 48 49 49 49 50 50 50 50 50 50 51 51 51 52 52 53 53 54 55 56 57 58 60 61 62 63 64 65 66 67 68 68 68 68 68 67 67 66 64 62
48 48 48 48 48 48 48 49 49 50 50 51 51 52 52 52 53 53 53 54 55 57 58 59 60 61 62 63 64 65 66 67 68 68 69 69 69 68 68 67 66 64 61 59
47 47 48 48 47 48 48 49 49 50 51 52 52 53 53 54 54 55 56 56 57 59 60 61 62 63 64 65 66 67 67 68 69 69 69 69 69 68 67 65 63 60 57 55
48 48 48 48 49 49 49 50 50 51 52 53 53 54 55 56 57 57 58 58 59 61 62 63 64 65 66 67 67 68 68 69 69 69 69 68 67 66 64 62 59 57 55 53
50 50 50 50 50 50 51 52 53 53 54 55 55 56 57 58 59 59 60 61 62 63 64 65 66 67 67 68 68 68 69 69 68 67 67 66 64 62 60 58 56 54 53 51
52 52 52 52 52 53 53 54 55 55 56 57 58 59 60 60 61 62 63 63 64 65 66 67 67 67 68 68 68 68 67 67 65 64 62 61 60 58 56 55 54 52 51 49
54 54 55 55 55 56 56 57 57 58 59 60 61 61 62 63 64 64 65 65 66 66 67 67 67 67 67 66 66 64 63 62 61 60 58 57 56 54 53 52 51 50 48 47
57 57 57 58 58 59 60 60 61 61 62 62 63 63 64 64 64 65 65 66 66 66 65 64 64 64 63 62 61 60 59 58 57 57 55 53 52 51 51 50 49 48 47 46
59 59 60 60 61 62 62 63 63 63 63 63 63 64 64 64 64 64 64 64 63 63 62 61 60 60 59 59 57 56 55 54 53 53 52 51 51 51 51 50 48 46 46 46

GEFSNGP_500_meanwind_114.txt.gz
Wind_Speed
13 14 14 13 13 14 14 14 13 11 9 7 8 8 8 8 8 8 8 7 7 7 6 5 5 4 5 5 6 6 7 9 10 11 11 12 13 14 15 16 17 18 19 19
11 11 13 13 13 13 13 13 12 11 9 9 8 8 9 9 9 8 8 8 7 7 7 6 6 6 6 7 8 9 10 11 11 12 13 14 15 16 16 17 18 19 20 21
11 11 12 12 13 14 13 12 11 10 10 10 9 9 9 10 10 9 9 8 8 8 8 8 8 9 9 10 11 12 12 13 14 15 16 16 17 18 19 20 20 21 22 23
13 13 12 11 13 14 14 13 12 11 11 10 11 11 11 10 10 10 10 9 10 10 10 10 11 11 12 13 14 15 15 16 17 18 19 19 20 20 21 22 23 24 25 26
16 15 13 13 13 13 13 13 13 12 12 12 12 12 11 11 11 11 11 11 11 12 12 12 13 14 14 15 16 17 18 19 20 21 21 22 23 23 24 25 26 27 28 28
17 17 15 13 14 14 14 13 13 12 13 13 13 13 13 13 13 13 13 13 13 14 14 15 16 16 17 18 19 20 21 22 22 23 24 25 26 26 27 28 29 30 31 31
18 18 15 15 15 15 15 13 14 14 14 14 14 14 14 14 14 15 15 15 16 16 16 17 18 19 20 21 22 23 23 24 25 26 27 28 29 30 30 31 32 33 34 35
20 19 16 17 17 16 15 16 15 15 15 16 16 16 16 16 16 17 17 18 18 19 19 20 21 22 23 24 25 26 27 28 29 30 30 31 32 33 33 34 35 36 37 38
22 19 18 18 18 18 18 17 17 17 17 17 18 18 18 19 19 19 20 21 21 22 23 23 25 26 26 27 28 29 30 31 32 33 34 34 35 35 36 37 38 39 40 41
23 22 21 20 20 20 20 20 20 19 19 20 20 21 21 22 22 23 23 24 25 26 26 27 28 29 30 31 32 33 34 34 35 36 37 37 38 38 39 40 41 41 42 43
25 24 24 23 23 23 22 22 22 22 22 22 23 24 24 25 25 26 27 28 28 29 30 31 32 33 34 35 36 36 37 38 38 39 39 40 40 41 41 42 43 44 45 46
28 27 27 27 27 26 26 26 26 26 26 26 27 27 28 28 29 30 31 31 32 33 34 35 36 37 37 38 39 39 40 40 40 41 41 42 42 43 44 45 45 47 48 49
31 31 31 31 31 30 30 30 30 30 30 30 30 31 31 32 33 34 34 35 36 37 38 38 39 39 40 41 41 42 42 42 43 43 43 44 45 46 46 47 48 49 50 51
34 34 34 34 34 34 34 34 34 34 34 34 34 35 35 36 36 37 37 38 39 40 40 40 41 41 42 43 43 44 44 44 44 45 46 47 48 49 49 50 51 52 53 55
37 37 37 37 37 37 37 37 37 38 38 38 38 38 38 38 39 40 40 41 41 41 42 42 43 44 45 45 45 46 46 46 47 47 48 49 50 51 52 52 53 55 57 58
40 40 40 39 39 39 40 40 41 41 41 40 40 41 41 42 42 42 42 43 43 43 44 45 46 46 47 47 47 48 48 49 49 50 51 52 53 54 55 56 57 58 60 61
42 42 42 42 42 42 42 42 42 42 43 43 42 43 43 43 44 44 45 45 46 46 47 47 48 48 48 49 50 50 50 51 52 53 53 54 55 57 58 59 60 62 63 65
42 42 42 43 43 43 43 43 44 44 44 45 45 45 45 45 46 47 47 48 48 48 48 49 50 50 50 51 51 52 52 53 54 55 56 57 58 60 61 62 63 65 66 67
44 44 44 44 44 45 45 45 45 45 46 46 47 47 47 47 48 48 49 49 49 49 50 51 51 52 52 52 53 53 54 55 56 57 59 60 61 62 64 65 66 67 68 68
43 44 44 45 45 45 45 45 45 45 46 46 47 47 47 48 49 49 50 51 51 51 52 52 52 52 53 53 54 55 56 58 59 60 62 63 64 65 66 67 68 68 69 69
45 45 45 45 46 46 46 46 46 47 47 47 47 48 48 49 49 50 51 51 51 52 52 52 53 53 54 55 57 58 59 61 62 63 64 65 66 67 68 68 68 68 68 68
45 45 46 46 46 47 47 48 48 48 48 48 48 49 49 50 50 51 51 51 52 53 53 54 55 56 57 58 60 61 62 63 64 65 66 67 68 68 68 68 68 67 67 67
46 46 47 47 47 47 47 48 48 49 49 49 50 50 51 51 51 52 52 53 54 55 55 56 57 59 60 61 63 64 65 66 67 67 68 68 68 68 68 67 66 65 65 64
48 48 48 49 49 49 49 49 49 50 50 51 51 52 53 53 54 54 55 56 57 57 58 59 61 62 63 64 66 67 68 68 68 68 68 68 67 66 65 64 64 63 62 61
51 50 50 50 50 50 50 50 51 51 52 53 53 54 55 56 56 57 57 58 59 60 61 62 63 64 65 66 67 67 68 67 67 67 67 66 65 64 62 62 61 61 60 59
52 52 52 52 52 52 52 53 53 54 54 55 55 56 57 58 59 59 60 60 61 62 63 63 64 65 65 66 66 67 66 66 65 65 64 63 62 61 60 59 59 58 57 56
54 54 54 54 54 55 55 55 55 56 57 58 58 59 60 60 61 61 62 62 63 63 64 64 65 65 65 65 65 65 64 63 63 62 61 60 59 59 58 57 56 55 54 54

GEFSNGP_500_meanwind_120.txt.gz
Wind_Speed
14 14 13 14 15 15 15 14 14 14 15 14 14 13 13 13 12 12 12 12 12 11 11 10 9 8 7 6 6 5 6 6 7 7 8 8 10 11 12 12 13 13 14 15
15 15 15 15 15 16 16 15 15 15 15 15 15 15 14 13 13 13 13 12 12 12 12 11 10 9 8 7 7 7 7 8 8 9 9 10 11 13 13 14 15 15 16 17
15 15 14 14 14 15 15 15 15 15 16 16 15 14 14 14 13 13 13 13 13 12 12 11 10 10 9 9 9 9 9 9 10 11 11 13 14 15 16 16 17 18 18 19
14 14 14 12 15 15 14 15 15 15 16 16 15 15 15 15 14 14 13 13 13 13 12 12 11 11 11 11 11 11 11 12 12 13 14 15 16 17 18 19 20 20 21 22
16 15 13 14 15 15 15 15 16 16 16 17 17 16 15 15 15 15 15 14 14 14 14 13 13 13 12 13 13 13 14 14 15 16 17 18 19 20 21 22 23 24 24 25
17 16 14 14 16 16 15 15 16 17 17 17 17 16 16 17 17 16 16 15 15 15 15 15 15 14 14 15 15 16 17 17 18 19 20 21 22 23 24 25 26 27 28 29
19 19 16 16 17 17 16 15 17 17 17 17 17 18 19 19 18 18 17 17 16 16 17 17 17 17 17 17 18 19 20 21 21 22 23 24 25 26 27 28 29 30 31 32
22 20 17 18 19 18 17 18 19 19 19 19 19 20 20 19 19 19 18 18 18 18 19 19 19 19 20 20 21 22 23 23 25 26 27 27 28 30 31 32 33 34 34 35
23 20 19 20 21 20 20 20 20 20 20 20 21 21 21 20 20 20 21 21 21 21 21 21 22 22 23 23 24 25 26 27 28 29 30 31 32 33 34 35 36 36 37 37
24 22 22 22 23 22 22 22 22 22 22 22 22 22 22 22 22 22 22 23 23 23 24 24 25 25 26 27 27 28 29 30 31 32 33 34 35 36 37 38 38 39 39 40
25 24 24 24 25 25 25 24 24 24 24 24 24 24 24 24 24 24 24 25 25 26 26 27 28 29 29 30 31 32 33 33 34 36 37 37 38 39 40 40 41 41 41 42
28 27 28 27 28 27 27 27 27 27 26 26 26 26 26 26 26 26 27 27 28 28 30 30 31 32 33 34 35 36 36 37 38 38 39 40 41 41 42 42 43 43 44 44
30 30 30 30 30 29 29 29 29 29 29 29 29 29 29 29 29 29 30 30 31 32 33 34 34 35 36 37 38 38 39 40 40 41 42 42 43 43 44 44 45 46 46 46
33 33 32 32 32 32 32 32 32 32 32 32 32 32 32 32 32 32 33 34 34 35 36 36 37 37 38 39 40 41 41 42 42 43 44 44 45 46 46 47 47 48 48 48
35 35 35 35 34 34 34 34 34 34 34 34 35 35 35 35 35 35 36 36 37 37 38 38 39 40 41 42 43 43 43 44 45 45 46 47 48 48 49 49 50 50 50 50
38 38 37 37 36 37 37 37 37 37 37 37 37 37 37 38 38 38 39 39 39 39 40 41 42 43 44 44 44 45 46 47 47 48 49 50 50 51 51 51 51 52 52 53
39 39 39 39 39 39 39 39 39 39 39 39 39 40 40 40 41 41 41 42 42 42 42 43 44 45 46 46 47 48 49 49 50 51 52 52 53 53 53 53 53 53 54 55
41 41 41 41 41 41 41 41 41 41 42 42 42 42 42 43 43 43 44 44 44 44 44 45 46 47 48 48 49 50 51 52 52 53 54 54 54 54 54 54 55 55 56 57
44 44 43 43 43 43 43 43 43 44 44 44 44 44 44 44 45 45 46 46 46 46 47 48 49 49 50 51 51 52 53 53 54 55 55 55 55 55 55 56 57 58 59 60
45 45 45 45 45 45 45 45 45 45 46 46 45 46 46 46 47 48 48 49 49 49 50 50 51 51 52 53 53 54 54 55 56 56 57 57 57 57 57 58 59 61 62 63
47 47 47 47 47 47 47 47 47 48 48 48 48 48 48 48 49 49 50 50 50 51 52 52 53 53 54 54 55 55 55 56 57 58 58 58 58 59 60 61 62 64 65 65
47 47 48 48 49 49 49 49 49 49 49 49 49 49 50 50 50 51 52 52 52 53 54 54 54 55 55 56 56 57 57 58 59 59 59 60 61 62 63 64 65 66 66 67
48 48 49 49 49 49 50 50 50 50 50 50 50 50 51 51 51 52 52 53 54 54 55 55 55 56 57 57 58 58 59 60 60 61 62 62 63 64 65 66 67 67 68 68
49 49 50 50 50 50 50 50 51 51 51 51 51 52 52 53 53 53 54 54 55 55 56 57 57 58 59 59 59 60 60 61 62 63 64 64 65 66 66 67 67 68 68 68
49 49 50 51 51 51 52 52 52 53 53 53 53 53 54 54 55 55 56 56 57 58 58 58 59 60 60 61 61 62 63 63 64 64 65 65 65 66 66 67 67 67 67 66
50 50 51 52 53 53 53 54 54 54 55 55 56 56 56 56 57 57 58 58 59 60 60 60 60 61 62 62 63 63 64 65 65 65 65 66 66 66 66 66 66 66 65 64
51 52 52 53 54 54 55 55 56 56 56 57 57 57 58 58 58 59 59 60 60 60 61 61 61 62 62 63 64 64 65 65 65 65 65 65 65 65 64 64 63 63 62 62

GEFSNGP_500_meanwind_126.txt.gz
Wind_Speed
13 13 13 13 14 14 14 15 16 18 18 16 16 16 15 15 15 16 16 16 16 15 15 15 15 15 14 13 12 11 10 9 7 7 6 6 6 6 6 7 7 8 10 11
13 13 13 13 14 15 15 16 16 18 19 18 18 17 16 16 16 16 16 17 17 16 16 16 16 15 15 14 12 11 10 10 9 8 8 8 8 8 8 9 9 10 11 12
13 14 13 13 14 15 16 16 17 18 19 20 19 18 17 17 17 17 17 17 17 17 16 16 16 16 15 14 13 12 11 11 10 10 10 10 10 10 10 10 11 12 13 14
14 14 14 13 14 15 16 17 18 18 19 20 19 19 18 17 17 17 18 18 17 17 17 17 17 16 16 15 14 13 12 12 11 11 11 12 12 12 12 13 13 15 16 17
14 14 13 14 15 15 16 17 18 18 20 20 20 19 18 18 18 18 18 18 18 18 18 18 18 17 16 16 15 14 13 13 13 13 13 14 14 14 15 16 16 17 19 20
15 15 14 15 16 15 16 17 18 18 18 19 19 19 18 19 19 19 19 19 19 19 19 19 19 18 17 17 16 16 15 15 15 15 15 16 16 17 17 18 19 20 22 23
16 16 15 15 16 16 16 16 17 18 18 18 17 18 20 20 20 20 20 20 20 20 20 20 20 19 19 18 18 17 17 17 17 17 17 18 18 19 20 21 22 23 24 26
17 17 16 17 17 17 17 17 18 19 19 19 20 20 21 21 20 20 20 20 20 21 21 21 21 21 20 20 19 19 19 19 19 20 20 20 21 22 22 23 25 26 27 28
19 19 18 19 19 19 18 18 19 19 20 21 22 22 22 21 21 21 21 21 22 22 22 22 22 22 22 22 22 22 22 22 22 22 23 23 24 25 26 26 28 29 30 31
21 20 21 21 21 21 21 21 21 21 21 21 22 23 23 23 23 22 22 22 23 23 23 23 23 23 24 24 24 24 24 24 25 25 26 27 27 28 29 30 31 32 33 34
23 23 24 23 23 23 23 23 23 23 23 22 22 23 23 24 24 24 24 24 24 24 24 25 25 25 26 26 26 26 27 27 28 29 29 30 31 32 33 34 35 35 36 37
25 25 25 24 24 24 24 24 25 24 24 24 24 24 24 25 25 25 25 25 25 26 26 27 27 28 28 29 29 29 30 30 31 32 33 33 34 35 36 37 37 38 39 39
27 27 27 26 26 26 26 26 26 26 26 25 25 25 26 26 26 26 27 27 28 28 28 29 29 30 30 31 31 32 33 33 34 35 35 36 37 37 38 39 40 41 41 41
30 29 29 29 29 28 28 28 28 27 27 27 27 27 27 28 28 28 29 29 30 30 30 31 31 32 32 33 34 34 35 36 36 37 38 38 39 40 41 42 42 42 43 44
32 32 31 31 30 30 30 30 29 29 28 29 29 29 29 29 30 30 31 31 31 31 32 32 33 34 35 36 36 37 38 38 39 40 41 42 42 43 43 43 44 44 45 46
35 34 34 33 32 32 32 32 32 31 31 31 31 31 31 31 32 32 32 33 33 33 34 34 35 36 37 38 39 40 40 41 42 43 43 43 44 44 45 45 46 46 47 47
37 36 35 35 35 34 34 34 34 34 34 34 34 34 34 34 34 34 35 35 36 36 37 37 38 39 40 40 41 41 42 43 44 44 45 45 46 47 47 47 48 48 48 49
38 38 38 37 37 37 37 36 37 37 37 37 36 36 37 37 37 37 38 38 39 39 39 40 41 42 42 43 44 44 45 46 46 47 47 48 48 49 49 49 50 50 51 51
40 40 39 39 39 39 39 39 39 39 39 39 39 39 39 40 40 40 41 41 41 42 42 43 44 44 45 46 46 47 47 48 48 49 50 50 51 51 52 52 52 53 53 54
41 42 41 41 41 41 41 40 40 41 41 41 42 42 42 42 43 43 43 44 44 44 45 46 46 47 48 48 49 50 50 51 51 52 52 52 53 53 54 54 54 55 55 56
41 42 42 42 42 42 43 43 43 43 43 43 43 43 44 44 45 45 45 46 46 47 48 48 49 49 50 51 51 52 52 53 53 54 54 55 55 55 56 56 56 57 58 58
42 42 42 43 43 43 43 44 44 44 44 45 45 45 46 46 47 48 48 48 49 50 50 51 51 51 52 52 52 53 53 54 54 55 55 56 56 57 57 58 58 59 60 60
43 43 43 44 45 45 45 45 45 46 46 46 47 47 48 48 49 49 50 50 50 51 52 52 52 52 53 53 53 54 54 55 55 56 56 57 58 59 59 60 60 61 61 62
43 44 45 45 45 46 47 47 47 47 48 48 48 49 50 50 51 51 51 51 52 52 52 52 53 53 54 54 54 55 55 56 56 57 58 59 60 60 60 60 61 62 62 63
44 44 44 45 45 46 47 47 48 49 50 50 50 51 51 52 52 52 52 52 52 53 53 54 54 54 55 56 56 57 57 58 58 59 60 60 61 61 61 61 62 63 63 64
45 45 45 45 45 46 47 48 49 49 50 51 52 52 53 53 53 53 53 53 53 54 55 56 56 57 58 58 59 59 60 60 60 60 61 61 61 61 61 62 63 63 63 63
45 45 46 46 46 47 47 48 49 49 50 51 52 52 53 54 54 55 55 55 56 56 57 57 58 58 59 59 60 60 60 60 61 61 61 62 62 62 62 63 63 63 63 63

GEFSNGP_500_meanwind_132.txt.gz
Wind_Speed
8 8 8 10 11 12 12 12 12 11 11 10 12 13 14 16 16 16 16 16 16 16 16 17 17 16 15 14 14 13 12 12 11 10 10 9 8 7 6 6 6 7 7 8
8 9 10 11 11 12 12 13 13 12 12 13 14 14 15 15 15 16 16 16 16 16 16 17 17 16 15 15 14 14 13 12 12 12 11 10 9 8 8 8 8 8 9 10
9 9 10 10 11 12 14 14 14 14 14 15 15 16 15 15 15 15 16 16 16 17 17 17 17 17 16 15 15 15 14 14 13 13 12 11 11 10 10 10 10 10 10 11
9 9 10 9 11 12 14 14 15 15 16 16 16 16 15 15 15 15 16 16 16 17 17 17 17 17 16 16 16 16 15 14 14 14 13 13 12 12 12 12 12 12 12 13
10 9 9 10 11 12 13 14 15 16 16 16 16 16 16 17 17 16 17 17 17 17 17 18 18 17 17 16 16 16 16 15 15 15 15 14 14 14 14 13 14 14 14 15
13 12 11 11 12 12 13 14 15 15 16 16 16 16 16 17 17 16 17 17 17 17 17 17 18 18 17 17 17 17 17 16 16 16 16 16 16 16 16 16 15 16 17 17
14 14 14 15 13 14 15 15 15 15 16 15 16 16 17 16 16 17 16 16 17 17 17 18 19 18 18 18 18 18 18 18 18 17 17 17 17 17 18 18 18 18 19 19
15 15 17 16 15 16 16 16 15 16 16 17 16 17 17 17 17 17 17 17 17 17 18 18 19 19 19 19 19 19 19 19 19 19 19 19 19 19 20 20 20 21 21 22
17 18 17 17 17 17 17 17 17 17 17 18 17 17 18 18 18 18 18 18 18 19 19 20 20 20 20 20 20 21 21 21 21 21 21 21 21 21 22 22 23 23 24 25
20 20 20 20 20 19 19 18 19 19 19 19 18 18 18 19 19 19 19 19 20 21 21 22 22 22 23 22 22 23 23 23 23 23 23 23 23 24 24 25 25 26 27 28
22 22 23 22 21 21 20 20 21 20 20 20 20 20 20 19 19 20 21 21 22 22 22 23 24 25 25 24 24 25 25 25 25 25 25 25 26 26 27 27 28 29 30 30
25 25 25 25 23 22 21 21 20 21 21 21 21 21 21 21 21 21 22 23 23 24 24 25 26 26 27 27 27 27 27 27 27 27 28 28 28 29 29 30 31 32 32 33
28 27 27 27 26 25 23 22 22 22 22 22 22 23 23 22 22 23 23 23 24 25 26 26 27 28 28 28 29 29 29 29 29 30 30 30 31 31 32 33 34 34 35 36
31 30 29 28 28 27 26 25 25 25 24 24 24 25 25 25 25 25 25 25 26 26 27 27 28 29 29 30 30 31 31 31 31 32 32 33 33 34 35 35 36 37 38 38
32 32 31 30 30 29 29 28 28 28 27 27 27 27 27 27 27 28 28 28 28 28 28 29 30 30 31 32 32 33 33 33 34 34 35 36 36 37 38 38 39 39 40 41
33 34 33 32 32 31 31 31 31 31 30 30 30 29 29 29 29 29 29 30 30 30 30 30 31 32 33 33 34 34 35 35 36 37 38 38 39 40 40 41 41 42 43 44
36 36 35 35 34 34 33 33 33 33 33 33 33 32 32 32 31 31 31 31 32 32 32 33 33 33 35 36 36 37 37 38 39 39 40 41 42 42 43 44 44 45 46 46
37 37 37 37 37 36 36 35 35 35 35 35 35 35 35 35 34 34 34 34 34 34 34 35 36 36 37 37 38 39 39 40 41 42 43 43 44 45 46 47 47 48 49 49
39 39 38 38 38 38 38 37 37 37 36 36 37 37 37 37 37 37 37 36 36 36 36 37 38 38 39 39 40 41 42 43 44 45 45 46 47 48 49 50 50 51 52 52
39 39 39 39 39 39 39 39 39 39 39 39 39 39 39 39 39 39 39 39 39 39 40 40 41 41 42 43 43 44 45 45 46 47 48 49 50 50 51 52 53 53 53 54
39 39 39 40 39 39 40 40 40 40 40 40 40 40 41 41 42 42 42 42 42 42 43 43 44 44 45 46 46 47 48 48 49 50 51 51 52 52 53 54 54 55 55 55
40 40 40 41 41 41 41 40 40 41 41 41 41 42 42 43 43 44 44 44 44 45 45 46 46 46 47 48 49 49 50 51 52 52 53 53 54 54 55 55 55 56 56 57
42 42 42 42 42 42 42 41 41 42 42 42 43 43 44 44 45 45 46 46 47 47 48 49 49 50 50 51 51 51 52 53 53 54 54 55 55 56 56 56 57 58 58 59
42 42 43 43 43 43 44 44 44 44 44 45 45 45 46 46 47 47 48 48 49 49 50 51 52 52 53 53 53 54 54 54 55 55 56 56 57 57 58 58 58 59 60 60
42 42 42 43 43 44 44 45 45 45 45 46 46 47 47 48 48 48 49 50 50 51 52 53 53 54 55 55 56 56 56 57 57 57 57 58 59 59 59 60 60 60 60 61
40 40 41 41 42 42 43 43 44 44 45 46 46 47 48 49 49 50 51 51 52 53 53 54 55 55 56 56 57 57 57 58 59 59 60 60 60 60 59 60 60 60 60 60
40 41 41 42 43 43 43 44 44 45 45 46 47 48 49 50 50 51 52 52 52 52 52 53 54 55 55 56 56 57 58 59 59 60 60 60 60 60 60 60 60 60 60 60